Location: Pallagorio
(39.3000°N, 16.9000°E)
Time: 18:09:15
(UTC+00:00)

YAOGAN 1 - Pass Details

Date: 24 January 2021
Orbit: 618 x 620 km, 97.9° (Epoch: 02 March)

Event Time Altitude Azimuth Distance (km) Brightness Sun altitude
Rises 17:58:27 0° 179° (S) 2,881 6.1 -22.1°
Reaches altitude 10° 18:00:41 10° 184° (S) 1,980 5.3 -22.6°
Maximum altitude 18:04:52 50° 260° (W) 792 3.4 -23.4°
Drops below altitude 10° 18:09:05 10° 337° (NNW) 1,995 5.4 -24.2°
Sets 18:11:21 0° 342° (NNW) 2,905 6.2 -24.6°
